K0JSC-13 Weather Reports


Display with metric or nautical units.
time (UTC)temp
F
wind
direction
speed
MPH
gust
MPH
rain 1hr
in
rain 24hr
in
rain mn
in
humidity
%
barometer
mb
20260903190003 88 296 8.0 16.0 0.00 0.00 0.00 21 986.3
20260903185403 88 301 9.0 17.0 0.00 0.00 0.00 23 986.4
20260903184503 87 293 9.0 21.0 0.00 0.00 0.00 22 986.6
20260903183817 87 293 7.0 19.0 0.00 0.00 0.00 23 986.7
20260903182703 87 298 8.0 18.0 0.00 0.00 0.00 22 986.8
20260903181803 87 295 7.0 18.0 0.00 0.00 0.00 24 987.1
20260903180904 86 294 7.0 17.0 0.00 0.00 0.00 21 987.1
20260903180003 86 294 8.0 17.0 0.00 0.00 0.00 22 987.2
20260903175403 86 281 7.0 16.0 0.00 0.00 0.00 22 987.3
20260903174503 86 295 6.0 14.0 0.00 0.00 0.00 25 987.3
20260903173603 85 300 7.0 19.0 0.00 0.00 0.00 26 987.4
20260903172703 85 301 7.0 14.0 0.00 0.00 0.00 26 987.6
20260903171803 85 296 7.0 16.0 0.00 0.00 0.00 26 987.6
20260903170904 84 296 8.0 19.0 0.00 0.00 0.00 27 987.6
20260903170004 84 313 8.0 17.0 0.00 0.00 0.00 29 987.6
20260903165403 84 310 9.0 23.0 0.00 0.00 0.00 28 987.5
20260903164503 83 312 11.0 18.0 0.00 0.00 0.00 28 987.6
20260903163603 83 306 9.0 18.0 0.00 0.00 0.00 30 987.7
20260903162703 83 306 9.0 18.0 0.00 0.00 0.00 28 987.6
20260903161803 82 313 9.0 16.0 0.00 0.00 0.00 34 987.6
20260903160903 82 307 7.0 15.0 0.00 0.00 0.00 31 987.6
20260903160003 82 305 8.0 16.0 0.00 0.00 0.00 31 987.7
20260903155404 81 310 9.0 16.0 0.00 0.00 0.00 30 987.7
20260903154503 81 310 8.0 14.0 0.00 0.00 0.00 29 987.8
20260903153818 81 305 6.0 13.0 0.00 0.00 0.00 33 987.9
20260903152917 81 297 6.0 11.0 0.00 0.00 0.00 34 988.0
20260903152016 80 302 8.0 15.0 0.00 0.00 0.00 31 988.0
20260903151118 79 318 3.0 11.0 0.00 0.00 0.00 38 987.9
20260903150003 77 300 1.0 4.0 0.00 0.00 0.00 39 988.2
20260903145403 76 293 2.0 4.0 0.00 0.00 0.00 40 988.4
20260903144504 75 293 2.0 6.0 0.00 0.00 0.00 40 988.6
20260903143603 73 290 2.0 6.0 0.00 0.00 0.00 42 988.7
20260903142703 72 303 1.0 6.0 0.00 0.00 0.00 49 988.7
20260903141803 70 317 1.0 3.0 0.00 0.00 0.00 52 988.8
20260903140903 68 320 2.0 4.0 0.00 0.00 0.00 52 988.9
20260903140217 68 328 2.0 4.0 0.00 0.00 0.00 51 988.9
20260903135403 66 337 2.0 4.0 0.00 0.00 0.00 53 988.9
20260903134503 65 338 2.0 4.0 0.00 0.00 0.00 54 988.8
20260903133604 63 337 2.0 4.0 0.00 0.00 0.00 52 988.7
20260903132916 62 336 2.0 4.0 0.00 0.00 0.00 53 988.6
20260903131803 62 331 1.0 4.0 0.00 0.00 0.00 57 988.6
20260903130903 62 331 0.0 2.0 0.00 0.00 0.00 55 988.6
20260903130003 63 331 0.0 2.0 0.00 0.00 0.00 53 988.5
20260903125403 63 331 1.0 2.0 0.00 0.00 0.00 50 988.4
20260903124503 64 331 1.0 3.0 0.00 0.00 0.00 48 988.3
20260903123603 65 340 2.0 4.0 0.00 0.00 0.00 45 988.1
20260903122704 66 354 2.0 5.0 0.00 0.00 0.00 43 988.1
20260903121803 66 354 2.0 6.0 0.00 0.00 0.00 42 988.1
20260903120903 67 12 5.0 11.0 0.00 0.00 0.00 41 987.9
20260903120003 66 23 6.0 11.0 0.00 0.00 0.00 42 987.6
20260903115403 66 42 6.0 9.0 0.00 0.00 0.00 42 987.6
20260903114503 65 59 4.0 7.0 0.00 0.00 0.00 44 987.6
20260903113816 65 31 2.0 4.0 0.00 0.00 0.00 45 987.6
20260903112703 64 328 2.0 8.0 0.00 0.00 0.00 46 987.4
20260903111804 64 325 3.0 9.0 0.00 0.00 0.00 46 987.2
20260903110903 64 286 2.0 4.0 0.00 0.00 0.00 48 987.1
20260903110003 65 305 2.0 7.0 0.00 0.00 0.00 46 987.1
20260903105403 65 313 2.0 5.0 0.00 0.00 0.00 46 987.1
20260903104503 65 297 2.0 6.0 0.00 0.00 0.00 45 987.0
20260903103603 66 305 2.0 5.0 0.00 0.00 0.00 45 987.0
20260903102703 66 297 3.0 12.0 0.00 0.00 0.00 44 987.0
20260903101803 65 300 4.0 12.0 0.00 0.00 0.00 45 987.1
20260903100904 64 304 4.0 9.0 0.00 0.00 0.00 48 986.9
20260903100003 64 290 2.0 7.0 0.00 0.00 0.00 49 986.8
20260903095403 63 287 2.0 6.0 0.00 0.00 0.00 50 986.9
20260903094503 63 292 2.0 6.0 0.00 0.00 0.00 52 986.9
20260903093817 63 294 2.0 4.0 0.00 0.00 0.00 52 986.9
20260903092703 64 280 2.0 4.0 0.00 0.00 0.00 50 987.0
20260903091803 65 263 2.0 4.0 0.00 0.00 0.00 48 987.1
20260903090903 66 240 1.0 4.0 0.00 0.00 0.00 46 987.2
20260903090004 67 233 1.0 4.0 0.00 0.00 0.00 45 987.2
20260903085616 68 233 2.0 4.0 0.00 0.00 0.00 44 987.1
20260903084503 68 271 3.0 8.0 0.00 0.00 0.00 43 987.2
20260903083603 69 311 2.0 5.0 0.00 0.00 0.00 41 987.2
20260903082703 69 293 3.0 5.0 0.00 0.00 0.00 39 987.3
20260903081803 69 270 2.0 5.0 0.00 0.00 0.00 41 987.4
20260903080903 69 320 4.0 8.0 0.00 0.00 0.00 40 987.3
20260903080217 70 310 4.0 9.0 0.00 0.00 0.00 40 987.3
20260903075404 70 310 5.0 10.0 0.00 0.00 0.00 38 987.3
20260903074503 71 310 5.0 12.0 0.00 0.00 0.00 38 987.3
20260903073603 71 327 6.0 13.0 0.00 0.00 0.00 37 987.4
20260903072703 70 301 3.0 9.0 0.00 0.00 0.00 39 987.3
20260903071803 70 300 3.0 8.0 0.00 0.00 0.00 38 987.3
20260903070903 70 312 4.0 9.0 0.00 0.00 0.00 38 987.2
20260903070003 71 289 4.0 9.0 0.00 0.00 0.00 38 987.3
20260903065618 71 305 3.0 8.0 0.00 0.00 0.00 38 987.1
20260903064504 71 315 4.0 8.0 0.00 0.00 0.00 37 987.2
20260903063603 72 315 5.0 9.0 0.00 0.00 0.00 37 987.2
20260903062918 72 306 4.0 9.0 0.00 0.00 0.00 38 987.2
20260903062017 73 307 5.0 11.0 0.00 0.00 0.00 35 987.1
20260903060903 74 299 4.0 10.0 0.00 0.00 0.00 35 987.0
20260903060006 74 299 4.0 12.0 0.00 0.00 0.00 34 987.0
20260903055403 74 291 4.0 11.0 0.00 0.00 0.00 35 987.0
20260903054503 74 287 4.0 11.0 0.00 0.00 0.00 34 987.1
20260903053818 74 302 5.0 12.0 0.00 0.00 0.00 35 987.0
20260903052703 75 313 6.0 11.0 0.00 0.00 0.00 34 987.1
20260903051803 76 318 6.0 11.0 0.00 0.00 0.00 33 987.1
20260903050903 76 316 5.0 10.0 0.00 0.00 0.00 33 987.1
20260903050003 77 314 5.0 11.0 0.00 0.00 0.00 32 987.0
20260903045403 77 320 6.0 11.0 0.00 0.00 0.00 31 987.0
20260903044503 77 327 6.0 11.0 0.00 0.00 0.00 31 987.0
20260903043818 77 321 7.0 14.0 0.00 0.00 0.00 31 986.8
20260903042704 76 315 5.0 11.0 0.00 0.00 0.00 32 986.7
20260903041803 77 313 3.0 7.0 0.00 0.00 0.00 32 986.8
20260903041118 77 315 5.0 10.0 0.00 0.00 0.00 31 986.7
20260903040004 76 316 6.0 12.0 0.00 0.00 0.00 30 986.4
20260903035403 76 309 3.0 8.0 0.00 0.00 0.00 32 986.3
20260903034718 75 282 3.0 8.0 0.00 0.00 0.00 31 986.3
20260903033603 74 278 2.0 7.0 0.00 0.00 0.00 35 986.1
20260903032703 74 333 2.0 7.0 0.00 0.00 0.00 32 985.9
20260903031804 74 288 1.0 3.0 0.00 0.00 0.00 35 985.9
20260903030903 74 305 2.0 5.0 0.00 0.00 0.00 34 985.6
20260903030003 73 333 2.0 5.0 0.00 0.00 0.00 37 985.4
20260903025403 73 335 2.0 5.0 0.00 0.00 0.00 36 985.3
20260903024503 73 344 2.0 5.0 0.00 0.00 0.00 39 985.2
20260903023603 73 288 1.0 6.0 0.00 0.00 0.00 38 985.0
20260903022703 73 326 2.0 5.0 0.00 0.00 0.00 38 985.0
20260903021804 74 291 3.0 7.0 0.00 0.00 0.00 42 985.0
20260903020904 75 139 1.0 3.0 0.00 0.00 0.00 39 984.8
20260903020003 76 0 0.0 0.0 0.00 0.00 0.00 41 984.7
20260903015403 77 140 0.0 2.0 0.00 0.00 0.00 37 984.6
20260903014503 78 140 1.0 3.0 0.00 0.00 0.00 35 984.4
20260903013603 81 140 1.0 3.0 0.00 0.00 0.00 32 984.4
20260903012703 83 140 1.0 3.0 0.00 0.00 0.00 29 984.5
20260903011803 85 140 1.0 3.0 0.00 0.00 0.00 26 984.6
20260903010903 86 140 2.0 4.0 0.00 0.00 0.00 23 984.6
20260903010218 87 138 3.0 10.0 0.00 0.00 0.00 21 984.6
20260903005617 87 164 4.0 8.0 0.00 0.00 0.00 20 984.6
20260903004503 88 208 5.0 11.0 0.00 0.00 0.00 21 984.5
20260903003816 88 220 6.0 11.0 0.00 0.00 0.00 20 984.4
20260903002703 90 174 4.0 11.0 0.00 0.00 0.00 24 984.3
20260903001803 90 145 3.0 8.0 0.00 0.00 0.00 21 984.2
20260903000903 90 134 4.0 10.0 0.00 0.00 0.00 21 984.2
20260903000004 90 121 5.0 11.0 0.00 0.00 0.00 20 984.3
20260902235617 90 113 3.0 11.0 0.00 0.00 0.00 20 984.2
20260902234503 89 38 1.0 3.0 0.00 0.00 0.00 21 984.2
20260902233603 89 37 1.0 3.0 0.00 0.00 0.00 21 984.2
20260902232703 88 31 3.0 5.0 0.00 0.00 0.00 21 984.3
20260902231803 89 304 2.0 4.0 0.00 0.00 0.00 25 984.4
20260902230903 90 264 2.0 4.0 0.00 0.00 0.00 25 984.6
20260902230217 90 172 1.0 2.0 0.00 0.00 0.00 22 984.8
20260902225617 91 170 0.0 4.0 0.00 0.00 0.00 22 984.9
20260902224504 93 158 1.0 3.0 0.00 0.00 0.00 18 985.1
20260902223817 93 176 2.0 5.0 0.00 0.00 0.00 19 985.2
20260902222703 93 239 3.0 9.0 0.00 0.00 0.00 18 985.4
20260902221803 93 267 3.0 9.0 0.00 0.00 0.00 20 985.4
20260902220903 92 242 4.0 9.0 0.00 0.00 0.00 17 985.6
20260902220003 92 213 6.0 11.0 0.00 0.00 0.00 18 985.7
20260902215403 92 213 7.0 14.0 0.00 0.00 0.00 18 985.8
20260902214503 92 237 8.0 16.0 0.00 0.00 0.00 19 985.9
20260902213604 92 245 7.0 16.0 0.00 0.00 0.00 19 985.9
20260902212703 92 219 6.0 12.0 0.00 0.00 0.00 18 986.2
20260902211803 92 245 7.0 14.0 0.00 0.00 0.00 19 986.3
20260902210903 92 245 7.0 14.0 0.00 0.00 0.00 21 986.4
20260902210003 91 239 9.0 16.0 0.00 0.00 0.00 19 986.5
20260902205403 91 244 6.0 16.0 0.00 0.00 0.00 19 986.6
20260902204503 91 245 6.0 16.0 0.00 0.00 0.00 16 986.8
20260902203603 91 234 3.0 12.0 0.00 0.00 0.00 20 986.9
20260902202704 90 310 3.0 8.0 0.00 0.00 0.00 20 987.0
20260902201803 90 317 1.0 4.0 0.00 0.00 0.00 24 987.2
20260902201117 89 336 3.0 10.0 0.00 0.00 0.00 21 987.3
20260902200004 89 321 6.0 12.0 0.00 0.00 0.00 22 987.5
20260902195403 89 322 5.0 12.0 0.00 0.00 0.00 23 987.6
20260902194503 88 346 3.0 11.0 0.00 0.00 0.00 23 987.8
20260902193603 88 222 3.0 11.0 0.00 0.00 0.00 21 987.9
20260902192703 88 8 1.0 4.0 0.00 0.00 0.00 22 988.0
20260902191804 88 302 4.0 11.0 0.00 0.00 0.00 24 988.1
20260902191116 88 312 4.0 11.0 0.00 0.00 0.00 23 988.3